Location: Great Chart
(51.1333°N, 0.8333°E)
Time: 11:44:27
(UTC+00:00)

COSMOS 2455 - Pass Details

Date: 19 September 2020
Orbit: 898 x 911 km, 67.1° (Epoch: 31 October)

Event Time Altitude Azimuth Distance (km) Brightness Sun altitude
Exits shadow 00:18:57 35° 342° (NNW) 1,447 4.2 -37.1°
Drops below altitude 10° 00:23:39 10° 30° (NNE) 2,608 5.9 -37.0°
Sets 00:26:24 0° 39° (NE) 3,553 6.7 -36.9°
